Wind_Speed
9 10 10 9 10 10 10 13 15 19 19 19 21 22 22 21 20 19 19 20 20 19 19 18 15 15 16 18 20 21 20 20 19 19 18 17 16 16 15 15 15 16 17 18 18 17 16 15 14
6 7 9 11 12 11 12 13 15 17 19 19 21 23 24 24 23 21 21 22 21 18 16 15 14 14 15 19 22 23 22 21 21 20 20 20 19 18 18 18 19 20 21 21 21 19 19 18 17
3 3 2 4 10 13 14 15 15 17 19 20 20 21 22 23 24 23 20 17 14 14 14 13 13 14 16 19 23 25 24 23 23 22 22 22 22 22 23 24 24 25 25 25 25 24 23 22 20
4 3 1 1 5 11 14 13 14 16 17 18 19 20 22 24 23 21 16 12 11 13 13 11 11 14 17 19 23 26 26 26 26 26 25 25 24 25 27 27 29 30 30 32 32 31 28 25 24
8 8 6 4 3 4 5 8 10 14 16 18 20 21 22 22 20 15 11 9 9 10 10 9 10 14 18 19 23 26 28 28 28 29 28 29 28 28 30 31 32 32 33 34 33 34 31 28 27
11 9 9 7 6 5 3 3 6 11 13 15 18 18 18 16 12 9 7 6 5 7 8 8 10 12 14 16 20 24 26 29 28 27 25 26 27 28 30 30 29 28 27 26 27 28 28 29 27
11 9 10 8 7 6 4 1 5 8 11 11 13 13 13 12 9 7 5 5 6 6 7 11 13 14 15 16 17 18 18 20 22 22 24 27 29 29 27 25 25 26 24 24 25 25 25 25 26
9 9 9 7 7 5 5 3 5 10 13 14 13 10 10 10 9 8 6 6 6 7 9 11 14 16 17 19 20 21 22 22 23 24 25 27 29 29 30 29 28 26 25 25 25 26 28 28 28
7 7 5 4 4 3 3 2 3 7 10 12 11 8 8 9 10 10 9 8 9 10 11 13 15 17 19 21 22 23 25 26 26 26 26 27 28 28 28 28 28 28 28 28 27 28 29 30 30
7 6 5 6 5 4 3 1 3 4 7 7 8 8 9 12 12 10 11 11 11 12 12 14 16 18 20 22 24 25 28 29 29 29 28 28 28 28 27 27 28 29 29 29 30 30 31 32 32
9 8 8 9 10 8 6 4 6 7 8 8 8 10 12 15 14 12 11 12 12 13 14 15 17 19 21 22 24 26 28 28 28 28 27 27 28 28 27 27 28 29 30 30 31 32 33 34 34
11 11 11 12 13 12 9 8 9 9 10 10 10 13 15 17 16 14 13 13 13 14 15 16 18 19 20 22 24 26 28 28 27 27 28 29 30 30 30 31 31 32 33 34 35 36 37 38 38
14 14 15 16 17 16 13 12 12 13 13 13 14 16 17 18 18 16 16 16 16 17 18 20 21 22 22 24 25 27 28 29 30 30 32 32 34 34 34 34 33 34 35 36 36 38 39 40 41
14 15 17 19 19 18 17 17 15 15 15 15 16 17 18 19 19 19 19 19 20 22 22 22 23 23 23 24 26 26 28 30 32 34 35 36 37 39 39 39 39 40 40 40 40 41 42 43 43
16 16 19 21 21 20 18 19 16 16 15 16 17 17 18 18 19 21 22 22 22 22 22 21 21 22 24 25 27 28 30 32 34 36 37 39 41 42 44 45 46 46 46 46 46 47 48 49 50
18 19 20 22 22 21 19 18 17 17 16 17 17 17 17 18 20 23 24 22 22 22 22 21 20 22 25 28 29 30 32 33 35 37 37 38 39 42 44 45 47 48 50 52 53 55 56 57 57
20 20 20 23 22 21 19 18 20 19 16 16 17 18 18 20 23 24 24 24 25 25 25 24 22 24 27 29 29 29 30 33 34 35 36 38 41 43 45 47 49 52 55 57 58 58 59 60 61
22 21 20 22 23 21 21 21 21 18 15 17 20 21 21 21 23 25 26 27 28 30 30 29 28 28 31 30 28 29 30 32 33 35 39 42 45 47 49 51 53 55 57 57 58 58 60 62 63
22 21 21 22 22 21 23 23 22 20 18 20 23 24 25 24 24 26 28 29 32 34 34 33 32 31 35 34 29 30 31 33 35 39 42 45 48 51 52 55 58 59 61 63 65 67 69 70 70
22 21 22 23 22 23 24 24 24 24 22 21 23 25 24 25 28 29 30 31 33 35 36 36 35 35 36 36 35 36 37 38 41 43 45 47 50 53 58 62 65 68 71 74 76 76 77 79 80
22 22 22 24 24 24 24 23 24 25 27 26 26 26 27 29 31 32 33 34 34 35 37 38 38 38 38 39 42 42 44 47 47 47 48 50 55 59 63 66 69 72 75 79 80 81 83 83 84
23 23 24 24 22 19 21 15 25 23 24 26 27 28 30 32 33 34 35 36 35 36 38 39 40 42 43 45 47 48 51 51 51 52 55 59 62 66 69 71 74 77 80 82 83 84 84 83 82
24 24 24 24 23 22 22 16 22 24 23 25 26 28 30 32 33 34 35 36 37 39 40 41 43 45 46 47 49 51 53 54 56 59 63 66 69 71 74 76 79 80 81 80 79 77 76 76 75
24 24 25 25 22 21 20 17 18 23 22 24 26 27 29 32 34 36 37 39 40 41 42 43 44 46 47 49 51 53 56 59 62 65 68 71 74 76 78 80 82 81 79 77 74 71 70 69 68
24 23 23 21 21 19 23 20 22 24 23 25 26 28 31 33 36 38 40 41 42 42 42 42 42 44 46 49 52 56 59 63 67 70 73 76 78 80 82 83 82 80 75 71 68 66 65 64 64
23 22 21 20 18 18 27 23 26 24 25 26 28 30 32 34 35 36 36 37 37 37 37 39 42 45 49 53 57 61 64 67 71 74 78 81 83 84 84 82 78 72 66 64 63 62 61 60 59
24 24 22 23 23 22 23 27 25 24 26 27 28 29 31 32 31 30 30 31 32 34 37 41 45 50 54 58 62 66 69 72 77 80 83 85 85 84 80 75 66 60 58 58 57 55 53 51 50
26 24 26 26 24 24 22 25 25 25 26 30 32 33 34 32 31 30 31 33 36 39 43 47 51 55 59 63 67 71 75 79 82 84 85 84 81 76 68 59 54 54 54 53 51 47 44 43 41
26 26 26 24 23 23 21 24 31 29 31 33 35 36 35 33 33 35 36 39 42 45 49 53 57 61 65 70 74 78 81 83 84 84 81 75 66 58 51 50 50 49 47 45 42 40 39 37 36
29 28 26 25 26 26 25 30 34 33 34 37 39 39 37 37 38 39 40 43 46 50 53 58 62 68 72 77 80 83 83 83 79 73 64 54 46 44 44 44 42 40 38 37 36 35 35 35 33
Wind_Direction
222 221 220 220 224 231 236 244 242 248 253 257 259 261 265 269 272 278 283 289 290 294 299 294 280 270 262 255 247 239 236 234 232 229 230 233 236 241 245 248 251 251 250 247 242 237 234 233 234
242 238 234 227 224 234 242 244 239 243 249 252 256 261 266 272 280 285 290 289 286 286 288 283 270 259 249 244 245 240 234 233 231 230 231 232 234 238 244 249 252 254 252 249 244 238 236 237 238
274 263 243 223 221 227 238 243 240 243 246 251 257 265 273 280 286 294 298 295 283 276 281 284 270 255 244 237 240 240 237 234 233 234 238 239 240 242 246 251 254 254 253 251 246 241 239 240 242
47 52 85 209 225 234 243 244 242 240 243 252 262 269 277 285 295 300 301 295 279 273 278 280 266 249 239 233 235 238 240 236 235 237 241 245 247 249 250 254 258 257 255 254 249 242 239 241 245
55 64 73 88 156 198 225 237 239 243 246 254 264 273 280 288 295 299 302 298 288 281 273 261 251 246 241 241 240 241 240 239 240 242 245 250 253 254 255 256 261 262 258 257 254 246 244 246 249
51 61 67 72 91 107 136 215 243 248 256 262 268 275 280 285 285 291 303 307 296 277 258 249 248 247 248 256 250 248 247 242 243 251 257 262 263 262 263 265 270 271 273 272 265 258 256 254 257
44 53 54 60 71 71 60 242 245 254 258 264 274 276 274 269 269 278 293 298 290 269 253 248 251 255 261 269 273 273 270 264 264 268 270 274 278 282 282 283 285 284 282 281 278 274 275 276 277
29 36 32 37 46 48 24 327 269 262 260 262 271 265 263 260 264 277 282 280 277 272 267 261 255 259 263 267 270 273 277 281 284 284 283 283 284 286 288 290 291 290 289 286 285 284 285 288 288
8 8 9 1 3 1 2 338 277 264 248 249 252 249 256 267 271 277 279 275 273 271 271 271 266 264 266 268 271 274 276 277 278 281 283 283 282 281 283 284 285 284 283 281 280 281 282 284 284
324 330 321 321 314 303 296 276 300 282 240 233 234 238 262 277 281 284 281 275 273 272 271 272 273 271 270 271 272 273 274 275 276 280 283 283 282 281 282 283 282 280 279 278 278 279 280 280 279
300 299 306 299 295 290 279 255 268 286 255 245 258 262 267 279 281 280 277 274 273 272 274 276 275 274 272 271 272 272 273 275 278 280 280 280 280 281 280 280 279 279 279 279 278 278 278 278 277
283 290 292 288 288 288 281 265 264 277 267 255 267 271 270 273 276 275 273 270 270 273 275 273 271 271 271 272 272 273 276 279 280 281 281 281 282 281 280 280 279 279 279 279 278 277 276 275 273
273 284 287 285 282 281 278 269 270 279 270 258 268 277 278 277 278 276 276 275 276 278 277 275 274 274 273 273 273 274 276 279 282 284 286 286 286 285 284 283 283 281 280 279 278 277 277 277 278
267 273 278 279 278 276 276 278 280 285 274 268 274 279 280 279 281 284 286 285 286 284 280 278 277 279 279 280 280 278 276 276 278 280 282 283 283 284 284 285 285 285 285 286 286 285 284 283 282
259 263 269 272 275 275 282 285 290 283 272 266 270 277 280 282 286 290 294 294 292 288 286 285 282 283 283 282 281 280 279 278 277 278 279 280 282 282 283 284 285 286 286 287 287 287 287 286 285
260 263 267 273 278 280 284 282 284 277 273 263 263 269 276 280 283 288 292 294 293 295 299 299 293 287 282 279 280 281 282 282 281 282 283 283 284 284 283 283 284 285 286 287 286 286 287 286 285
262 265 267 270 280 281 280 277 273 279 271 255 249 254 264 272 277 284 290 293 293 296 305 303 298 288 282 277 276 278 280 280 281 283 284 285 285 285 285 285 286 288 289 289 288 287 288 287 285
263 267 270 273 281 278 275 272 275 276 268 254 247 251 262 272 276 283 290 294 297 301 305 302 298 290 280 273 272 275 277 280 282 285 287 288 289 290 290 290 291 292 292 291 291 289 288 287 284
262 264 268 270 275 273 270 271 273 269 260 261 263 266 271 276 280 282 285 291 296 299 300 298 295 288 281 274 277 281 280 282 283 284 286 287 290 292 293 294 295 295 295 294 292 291 290 288 285
262 265 266 266 269 270 269 270 270 269 266 263 265 268 269 270 273 276 279 285 291 294 295 293 290 287 283 280 286 287 286 287 289 289 289 291 293 294 296 299 300 300 299 297 295 294 292 291 290
261 263 265 268 271 271 272 273 266 264 267 268 267 268 266 268 272 276 281 286 289 290 291 291 289 288 286 286 288 287 288 292 294 294 295 296 296 298 299 300 300 298 297 295 295 294 292 291 289
260 261 263 266 269 268 268 261 277 267 265 265 265 267 270 275 279 283 287 289 289 289 289 289 288 288 287 286 286 286 289 291 293 295 296 297 298 299 299 298 297 297 296 295 294 293 291 290 289
257 263 264 266 265 262 270 253 267 276 274 272 271 272 275 279 282 284 285 285 285 286 285 284 285 284 284 284 286 288 290 292 294 295 296 296 297 297 298 298 298 297 297 296 295 293 292 290 290
261 263 264 266 265 264 260 261 257 269 269 270 271 273 275 276 277 278 279 280 281 281 280 279 280 280 282 285 288 289 290 292 293 294 294 294 295 297 298 299 299 299 298 297 295 294 293 291 289
259 260 263 264 263 263 262 266 252 272 273 272 274 278 281 281 280 279 279 280 281 280 279 279 281 283 285 287 288 289 290 291 291 292 293 294 296 298 299 299 299 298 297 296 295 294 292 291 289
255 253 250 251 253 258 269 266 270 277 278 280 283 287 289 289 287 285 284 283 282 282 283 284 285 286 287 288 289 289 290 291 292 293 294 296 297 299 299 300 299 298 297 296 295 295 294 292 291
252 250 246 247 251 247 256 268 278 281 286 290 292 295 297 297 294 291 288 287 286 286 286 287 287 288 289 290 291 292 292 293 293 294 295 297 298 299 299 299 299 298 298 299 299 298 296 295 293
247 245 245 245 248 253 254 270 278 283 291 296 300 303 302 299 296 294 293 293 293 293 292 292 293 294 294 293 293 293 293 293 294 295 297 298 298 298 298 298 298 299 300 300 300 300 298 297 296
247 246 246 246 242 246 253 260 275 284 291 295 298 301 300 297 296 296 296 297 297 297 297 297 297 297 296 296 295 295 295 296 297 298 299 299 298 296 296 296 298 299 300 301 301 300 299 299 299
246 245 244 246 252 253 251 257 266 279 288 293 297 300 299 297 296 296 297 299 300 301 301 301 300 299 299 298 297 298 298 299 299 300 300 298 297 296 296 297 300 302 305 305 304 302 301 301 300
Height
5899 5900 5901 5902 5904 5905 5905 5905 5905 5905 5905 5905 5904 5905 5905 5906 5907 5909 5907 5903 5902 5900 5898 5897 5896 5896 5895 5895 5895 5896 5895 5895 5895 5895 5895 5895 5895 5896 5896 5897 5896 5896 5895 5894 5894 5893 5893 5892 5892
5898 5899 5900 5901 5903 5904 5904 5903 5903 5903 5903 5902 5902 5902 5902 5902 5903 5903 5902 5900 5898 5896 5895 5893 5892 5891 5891 5891 5892 5892 5892 5892 5892 5892 5892 5892 5892 5892 5892 5892 5892 5892 5891 5891 5890 5889 5889 5888 5887
5897 5897 5899 5900 5901 5903 5902 5901 5901 5901 5901 5900 5900 5900 5900 5900 5899 5899 5898 5896 5894 5893 5892 5890 5889 5888 5888 5888 5888 5889 5889 5889 5890 5890 5890 5889 5889 5889 5888 5888 5887 5887 5886 5886 5885 5884 5883 5883 5883
5896 5897 5898 5899 5899 5899 5900 5900 5900 5899 5899 5899 5898 5898 5898 5897 5895 5894 5893 5891 5890 5889 5888 5887 5887 5886 5885 5884 5885 5885 5886 5886 5886 5886 5886 5886 5885 5885 5884 5883 5882 5882 5881 5880 5879 5878 5877 5877 5878
5896 5896 5897 5897 5897 5897 5898 5898 5898 5899 5898 5898 5897 5896 5895 5894 5892 5890 5889 5888 5887 5887 5886 5885 5885 5884 5883 5882 5882 5882 5882 5883 5882 5881 5881 5881 5880 5879 5878 5877 5877 5875 5874 5873 5872 5872 5872 5872 5872
5896 5896 5897 5898 5897 5897 5897 5898 5898 5898 5897 5896 5895 5894 5893 5892 5890 5889 5887 5886 5885 5884 5884 5883 5882 5882 5881 5880 5880 5879 5878 5878 5878 5877 5876 5875 5874 5874 5872 5872 5871 5870 5869 5868 5867 5867 5867 5866 5865
5897 5897 5897 5898 5898 5898 5898 5897 5897 5897 5896 5894 5893 5892 5891 5890 5889 5888 5887 5885 5884 5882 5882 5881 5880 5879 5878 5877 5877 5876 5875 5875 5874 5873 5872 5870 5869 5869 5867 5866 5865 5864 5863 5863 5862 5861 5860 5859 5858
5896 5897 5897 5897 5898 5898 5898 5897 5897 5896 5895 5893 5892 5891 5889 5888 5886 5885 5884 5883 5882 5880 5879 5878 5877 5876 5875 5875 5874 5873 5872 5871 5870 5869 5867 5866 5865 5864 5862 5861 5860 5859 5858 5857 5856 5855 5855 5853 5852
5894 5897 5896 5897 5897 5897 5897 5896 5896 5894 5893 5891 5890 5890 5888 5886 5884 5884 5883 5882 5880 5879 5877 5876 5875 5873 5872 5871 5870 5869 5868 5867 5866 5864 5863 5861 5860 5859 5858 5856 5855 5854 5852 5851 5850 5850 5849 5848 5847
5893 5895 5894 5895 5895 5896 5896 5895 5894 5893 5892 5890 5889 5888 5885 5883 5882 5882 5881 5880 5879 5877 5875 5874 5873 5871 5869 5868 5867 5866 5864 5863 5861 5859 5858 5856 5855 5853 5852 5851 5850 5848 5846 5845 5844 5843 5842 5842 5841
5890 5891 5891 5891 5892 5893 5894 5893 5892 5891 5890 5889 5887 5885 5883 5880 5879 5879 5879 5878 5876 5874 5873 5871 5870 5868 5867 5865 5864 5862 5860 5858 5857 5855 5853 5851 5849 5847 5846 5845 5844 5842 5841 5839 5838 5837 5836 5835 5834
5887 5887 5888 5888 5888 5889 5890 5890 5889 5889 5889 5887 5885 5883 5880 5877 5876 5877 5876 5875 5873 5872 5871 5869 5868 5866 5865 5863 5861 5858 5856 5854 5852 5850 5848 5845 5844 5842 5840 5838 5837 5836 5834 5833 5832 5831 5829 5828 5826
5884 5884 5884 5885 5885 5885 5886 5886 5886 5885 5884 5883 5882 5879 5877 5874 5873 5873 5872 5871 5870 5869 5868 5866 5865 5863 5862 5860 5858 5855 5853 5850 5847 5845 5842 5840 5838 5836 5834 5832 5830 5829 5827 5825 5824 5822 5821 5819 5817
5881 5881 5881 5881 5881 5882 5882 5882 5881 5881 5880 5879 5878 5876 5874 5871 5870 5869 5869 5868 5867 5865 5863 5862 5861 5859 5858 5856 5854 5851 5849 5846 5843 5840 5838 5835 5833 5830 5828 5825 5823 5820 5818 5816 5814 5813 5811 5809 5807
5878 5879 5878 5877 5877 5878 5879 5878 5877 5877 5876 5875 5874 5873 5871 5869 5867 5865 5864 5863 5862 5859 5858 5856 5855 5854 5852 5850 5847 5845 5842 5840 5838 5835 5833 5830 5828 5825 5822 5820 5817 5814 5811 5808 5806 5803 5801 5798 5796
5874 5875 5875 5874 5873 5873 5876 5875 5874 5872 5872 5872 5871 5870 5869 5867 5864 5862 5860 5859 5856 5854 5853 5851 5850 5848 5845 5842 5840 5838 5836 5834 5832 5830 5827 5824 5821 5819 5816 5814 5811 5808 5805 5802 5799 5795 5792 5789 5786
5870 5871 5871 5870 5869 5869 5870 5870 5868 5867 5868 5868 5867 5866 5866 5864 5861 5858 5856 5854 5852 5849 5847 5845 5844 5841 5838 5835 5833 5831 5829 5827 5825 5823 5820 5817 5814 5811 5808 5805 5802 5799 5795 5792 5789 5785 5781 5778 5774
5866 5867 5867 5866 5864 5865 5864 5864 5863 5863 5864 5863 5863 5862 5862 5860 5858 5856 5853 5850 5847 5843 5841 5838 5836 5833 5830 5826 5824 5823 5821 5819 5817 5815 5812 5808 5805 5801 5798 5795 5792 5788 5784 5780 5776 5773 5768 5764 5759
5861 5862 5862 5861 5859 5859 5858 5858 5858 5859 5860 5859 5858 5857 5857 5856 5854 5852 5849 5845 5842 5838 5835 5831 5828 5825 5821 5817 5815 5814 5813 5811 5808 5805 5802 5799 5795 5792 5788 5784 5780 5775 5770 5766 5761 5756 5752 5747 5742
5855 5856 5856 5856 5855 5854 5852 5853 5853 5853 5853 5854 5853 5852 5852 5851 5848 5846 5844 5841 5837 5832 5828 5824 5820 5818 5814 5810 5807 5805 5803 5801 5798 5795 5792 5788 5784 5780 5775 5771 5765 5759 5754 5747 5742 5737 5731 5726 5721
5849 5850 5851 5850 5850 5849 5848 5847 5848 5847 5847 5848 5847 5846 5845 5844 5841 5839 5837 5834 5831 5826 5822 5817 5813 5810 5807 5803 5800 5796 5792 5790 5787 5783 5779 5775 5771 5766 5761 5755 5750 5743 5736 5728 5722 5716 5710 5705 5701
5843 5844 5845 5845 5845 5846 5845 5849 5840 5841 5842 5842 5841 5840 5838 5835 5833 5831 5828 5825 5822 5819 5815 5810 5806 5802 5799 5795 5791 5787 5784 5780 5776 5771 5766 5761 5756 5751 5746 5740 5733 5726 5718 5710 5704 5696 5689 5683 5678
5837 5837 5838 5838 5839 5840 5839 5843 5839 5835 5834 5834 5833 5832 5830 5828 5825 5822 5820 5817 5814 5811 5807 5803 5799 5794 5790 5785 5781 5777 5773 5768 5763 5757 5752 5747 5741 5736 5729 5723 5715 5707 5699 5691 5684 5676 5669 5662 5656
5830 5831 5831 5831 5833 5834 5834 5835 5837 5829 5829 5827 5826 5824 5823 5821 5818 5815 5811 5808 5805 5802 5798 5795 5790 5786 5782 5777 5773 5768 5763 5757 5751 5745 5740 5734 5727 5720 5712 5704 5696 5688 5679 5671 5663 5656 5650 5643 5638
5823 5825 5826 5826 5827 5829 5826 5827 5827 5824 5823 5821 5819 5817 5815 5812 5809 5806 5803 5799 5796 5793 5789 5786 5782 5778 5774 5769 5763 5757 5751 5745 5739 5732 5725 5718 5711 5703 5694 5686 5677 5668 5659 5652 5645 5639 5633 5627 5622
5816 5819 5822 5823 5825 5825 5818 5819 5817 5817 5815 5813 5812 5809 5806 5803 5800 5796 5793 5790 5787 5784 5781 5777 5773 5769 5763 5757 5751 5745 5739 5731 5723 5716 5708 5700 5692 5684 5674 5666 5657 5648 5641 5634 5628 5622 5616 5610 5605
5809 5810 5814 5816 5815 5816 5815 5810 5810 5809 5808 5806 5804 5801 5798 5794 5791 5788 5786 5783 5780 5776 5772 5768 5762 5757 5751 5744 5737 5730 5723 5715 5706 5698 5690 5682 5673 5664 5654 5646 5639 5632 5625 5619 5612 5606 5600 5594 5589
5802 5804 5804 5806 5807 5808 5809 5805 5803 5801 5800 5798 5795 5793 5790 5787 5783 5780 5777 5774 5770 5766 5761 5756 5750 5744 5737 5729 5722 5714 5706 5697 5688 5679 5670 5662 5653 5645 5637 5630 5625 5619 5612 5605 5599 5593 5587 5581 5577
5795 5796 5797 5799 5801 5802 5803 5803 5794 5794 5793 5790 5787 5785 5782 5779 5776 5772 5768 5764 5760 5755 5750 5744 5738 5730 5722 5713 5704 5695 5686 5676 5667 5657 5649 5641 5634 5628 5623 5618 5613 5607 5601 5594 5588 5582 5577 5572 5567
5787 5789 5790 5792 5792 5792 5795 5795 5790 5787 5785 5782 5779 5777 5774 5771 5767 5763 5759 5755 5750 5744 5738 5731 5723 5714 5704 5694 5684 5674 5664 5655 5646 5638 5631 5625 5620 5617 5613 5608 5603 5597 5591 5585 5579 5573 5568 5563 5559